OSCAR 32 [?]

Last updated on Tue Jun 27 2023 01:03:36 GMT+0100 (British Summer Time)

1 19071U 88033B 23176.71861470 .00000117 00000+0 21647-3 0 9994 2 19071 90.3190 348.6743 0189086 153.0646 219.3492 13.27757087703506
UTC large
Height (km)
Speed (km/s)
/
Latitude / Longitude
Inclination (degrees)
Orbital Period (minutes)
Azimuth
Elevation
Range (km)
Doppler Factor

Next 0 passes for location: London (51.5072 / 0.1276)

Sorry there are no passes over London.